www.pogodaiklimat.ru

Погода и климат >> Архив погоды >> Австралия >> Западная Австралия >> Марди


ПОГОДА в Марди

  • Прогноз погоды в Марди
  • Монитор погоды в Марди

АРХИВ ПОГОДЫ в Марди

Время (UTC), дата Ветер
(напр.,м/с)
 
Видим.   Явления Облачность Т
(С)
Тd
(С)
f
(%)
Тe
(С)
Тes
(С)
Комфортность P
(гПа)
Po
(гПа)
Тmin
(С)
Tmax
(С)
R
(мм)
R24
(мм)
S
(см)
09 21.03 В 12 н/о н/о +36.2 +19.6 38 +42 +42 опасность
перегрева
1003.2 1001.9
10 21.03 В 6 н/о н/о +35.1 +18.6 38 +40 +40 очень
душно
1003.7 1002.4
12 21.03 СВ 2 н/о н/о +33.3 +21.5 50 +41 +41 опасность
перегрева
1005.6 1004.3
13 21.03 ЮЗ 3 н/о н/о +30.3 +23.5 67 +41 +41 опасность
перегрева
1005.5 1004.2
15 21.03 штиль 0 н/о н/о +30.3 +24.2 70 +42 +42 опасность
перегрева
1005.4 1004.1
16 21.03 ЮЗ 2 н/о н/о +30.1 +24.0 70 +42 +42 опасность
перегрева
1005.1 1003.8
18 21.03 Ю 4 н/о н/о +28.7 +25.1 81 +42 +42 опасность
перегрева
1004.5 1003.2
22 21.03 Ю 3 н/о н/о +29.3 +22.0 65 +38 +38 очень
душно
1004.1 1002.8
01 22.03 ЮВ 7 н/о н/о +32.7 +21.2 51 +40 +40 очень
душно
1004.4 1003.1
03 22.03 В 8 н/о н/о +35.1 +20.6 43 +42 +42 опасность
перегрева
1004.1 1002.8
04 22.03 В 9 н/о н/о +36.4 +18.9 36 +41 +41 опасность
перегрева
1003.2 1001.9
06 22.03 В 11 н/о н/о +32.1 +21.9 55 +41 +41 опасность
перегрева
1003.1 1001.8
07 22.03 В 8 н/о н/о +33.1 +21.6 51 +41 +41 опасность
перегрева
1002.4 1001.1
09 22.03 В 8 н/о н/о +34.2 +20.6 45 +41 +41 опасность
перегрева
1002.7 1001.4
10 22.03 ЮВ 9 н/о н/о +30.6 +22.2 61 +40 +40 очень
душно
1002.9 1001.6
12 22.03 ЮВ 5 н/о н/о +30.0 +21.9 62 +39 +39 очень
душно
1004.1 1002.8
13 22.03 ЮВ 6 н/о н/о +30.2 +21.3 59 +38 +38 очень
душно
1004.6 1003.3 +37.5
15 22.03 ЮВ 4 н/о н/о +30.4 +20.9 57 +38 +38 очень
душно
1003.6 1002.3
16 22.03 ЮВ 5 н/о н/о +30.3 +20.8 57 +38 +38 очень
душно
1003.3 1002.0
18 22.03 ЮВ 5 н/о н/о +30.1 +20.6 57 +37 +37 очень
душно
1002.1 1000.8
19 22.03 ЮВ 5 н/о н/о +29.6 +20.7 59 +37 +37 очень
душно
1001.8 1000.5
21 22.03 ЮВ 8 н/о н/о +29.9 +20.7 58 +37 +37 очень
душно
1000.9 999.6
22 22.03 ЮВ 7 н/о н/о +29.9 +20.2 56 +36 +36 очень
душно
1000.8 999.5
00 23.03 ЮВ 10 н/о н/о +31.1 +20.1 52 +38 +38 очень
душно
1002.0 1000.7
01 23.03 В 10 н/о н/о +31.7 +20.0 50 +38 +38 очень
душно
1001.8 1000.5 +29.7
03 23.03 В 13 н/о н/о +33.6 +19.3 43 +39 +39 очень
душно
1001.1 999.8
04 23.03 В 13 н/о н/о +34.5 +18.9 40 +39 +39 очень
душно
1000.2 998.9
06 23.03 ЮВ 13 н/о н/о +35.1 +17.8 36 +39 +39 очень
душно
998.6 997.3
07 23.03 ЮВ 14 н/о н/о +34.8 +18.0 37 +39 +39 очень
душно
998.5 997.2
09 23.03 ЮВ 12 н/о н/о +34.3 +17.9 38 +38 +38 очень
душно
998.5 997.2
10 23.03 ЮВ 13 н/о н/о +33.6 +18.5 41 +38 +38 очень
душно
998.8 997.5
12 23.03 ЮВ 12 н/о н/о +32.7 +16.5 38 +36 +36 очень
душно
1000.0 998.7
13 23.03 ЮВ 9 н/о н/о +32.8 +15.3 35 +35 +35 душно 1000.6 999.3 +36.2
15 23.03 ЮВ 12 н/о н/о +32.8 +13.4 31 +34 +34 очень
жарко
999.9 998.6
16 23.03 ЮВ 16 н/о н/о +32.2 +16.1 38 +35 +35 очень
душно
999.3 998.0
18 23.03 ЮВ 12 н/о н/о +30.9 +16.5 42 +34 +34 душно 998.3 997.0
19 23.03 ЮВ 12 н/о н/о +28.9 +18.4 53 +34 +34 очень
душно
997.7 996.4
21 23.03 Ю 9 н/о н/о +28.7 +17.9 52 +33 +33 очень
душно
997.8 996.5
22 23.03 Ю 8 н/о н/о +28.8 +17.3 50 +33 +33 очень
душно
997.9 996.6

 

Местоположение метеостанции Марди (Западная Австралия, Австралия): широта -21.18 долгота 115.97 высота над уровнем моря 12 м.

В архиве по умолчанию представлена погода в Марди за последнюю неделю. Архивные данные за месяц целиком и за предыдущие месяцы, начиная с января 2011 года, Вы можете получить, выбрав интересующий диапазон дат из раскрывающегося списка и нажав кнопку "Ввод!".


*Определитесь, кто Вы:
робот инопланетянин человек

Внимание! Время в таблицах - всемирное. Для получения местного времени необходимо прибавить поправку, которая равна 8 ч.

Смотрите также архив погоды в соседних городах и на ближайших метеорологических станциях:

Погода в Барроу-Айленд (Западная Австралия, Австралия) (68 км)
Погода на Острове Варанас (Западная Австралия, Австралия) (72 км)
Погода в Каррате (Западная Австралия, Австралия) (98 км)
Погода на Острове Тевенард (Западная Австралия, Австралия) (103 км)
Погода в Онслоу (Западная Австралия, Австралия) (104 км)
Погода в Роборне (Западная Австралия, Австралия) (132 км)
Погода в Лермонте (Западная Австралия, Австралия) (228 км)
Погода в Параберду (Западная Австралия, Австралия) (287 км)
Погода в Порт-Хедленде (Западная Австралия, Австралия) (291 км)
Погода в Марбл-баре (Западная Австралия, Австралия) (392 км)

Пояснения к столбцам:

Ветер - указаны скорость ветра в м/с - средняя за 10 мин, порывы в срок и между сроками (в фигурных скобках) и направление, откуда дует ветер: С - северный, СВ - северо-восточный, В - восточный, ЮВ - юго-восточный, Ю - южный, ЮЗ - юго-западный, З - западный, СЗ - северо-западный.
Видимость - горизонтальная дальность видимости в метрах или километрах. При видимости от 1 до 10 км при отсутствии осадков обычно наблюдается дымка, при ухудшении видимости до 1 км и менее - туман. В сухую погоду видимость может ухудшаться дымом, пылью или мглою.
Явления - указаны атмосферные явления, наблюдавшиеся в срок или в последний час перед сроком; фигурными скобками обозначены явления, наблюдавшиеся между сроками (за 1-3 часа до срока); квадратными скобками обозначены град или гололедные отложения с указанием их диаметра в мм.
Облачность - указаны через наклонную черту общая и нижняя облачность в баллах и высота нижней границы облаков в метрах; квадратными скобками обозначены формы облаков: Ci - перистые, Cs - перисто-слоистые, Cc - перисто-кучевые, Ac - высококучевые, As - высокослоистые, Sc - слоисто-кучевые, Ns - слоисто-дождевые, Cu - кучевые, Cb - кучево-дождевые. Подробнее классификацию облаков см. в Атласе облаков (PDF).
T - Температура воздуха - температура, измеренная на высоте 2 м над землей.
Td - Температура точки росы - температура, при понижении до которой содержащийся в воздухе водяной пар достигнет насыщения.
f - Относительная влажность воздуха - влажноcть воздуха, измеренная на высоте 2 м над землей.
Te - Эффективная температура - температура, которую ощущает одетый по сезону человек в тени. Характеристика душности погоды. При расчете учитывается влияние влажности воздуха и скорости ветра на теплоощущения человека.
Tes - Эффективная температура на солнце - температура, которую ощущает человек, с поправкой на солнечный нагрев. Характеристика знойности погоды. Зависит от высоты солнца над горизонтом, облачности и скорости ветра. Ночью, в пасмурную погоду, а также при ветре 12 м/с и более поправка равна нулю.
P - Атмосферное давление - приведенное к уровню моря атмосферное давление.
Po - Атмосферное давление - измеренное на уровне метеостанции атмосферное давление.
Tmin - Минимальная температура - минимум температуры воздуха на высоте 2 м над землей.
Tmax - Максимальная температура - максимум температуры воздуха на высоте 2 м над землей.
R - Количество осадков - Количество выпавших осадков за период времени, мм. При наведении курсора мыши на число - период времени, за который выпало указанное количество осадков.
R24 - Количество осадков - Количество выпавших осадков за 24 часа, мм.
S - Снежный покров - Высота снежного покрова, см. При наведении курсора мыши на число - состояние снежного покрова и степень покрытия местности в баллах.